Ontario, OR

11:19 AM MST on February 20, 2018 (GMT -0700)
Ontario Municipal

Weather History for KONO - January, 2013

Change the Weather History Date:

Tuesday, January 1, 2013

  Actual Average Record
Temperature  
Mean Temperature 13 °F 26 °F  
Max Temperature 21 °F 34 °F 53 °F (2009)
Min Temperature 4 °F 19 °F -12 °F (1979)
Degree Days  
Heating Degree Days 52 39  
Month to date heating degree days 52 39  
Since 1 July heating degree days 2249 2620  
Cooling Degree Days 0 0  
Month to date cooling degree days 0 0  
Year to date cooling degree days 0 0  
Moisture  
Dew Point 8 °F    
Average Humidity 80    
Maximum Humidity 88    
Minimum Humidity 71    
Precipitation  
Precipitation 0.00 in 0.05 in 0.60 in (1982)
Month to date precipitation 0.00 0.05  
Year to date precipitation 0.00 0.05  
Sea Level Pressure  
Sea Level Pressure 30.68 in    
Wind  
Wind Speed 4 mph (SW)    
Max Wind Speed 9 mph    
Max Gust Speed 12 mph    
Visibility 10 miles    
Events      
T = Trace of Precipitation, MM = Missing Value Source: NWS Daily Summary

Daily Weather History Graph

Daily Weather History Graph

Search for Another Location

Airport or City:

Trip Planner

Search our weather history database for the weather conditions in past years. The results will help you decide how hot, cold, wet, or windy it might be!

Date:

Astronomy

Jan. 01, 2013 Rise Set
Actual Time 8:22 AM MST 5:20 PM MST
Civil Twilight 7:49 AM MST 5:53 PM MST
Nautical Twilight 7:13 AM MST 6:30 PM MST
Astronomical Twilight 6:38 AM MST 7:05 PM MST
Moon 10:06 PM MST (1/1) 10:27 AM MST (1/1)
Length of Visible Light 10h 03m
Length of Day
8h 58m
Waning Gibbous, 83% of the Moon is Illuminated
Jan 1
Waning Gibbous
Jan 4
Last Quarter
Jan 11
New
Jan 18
First Quarter
Jan 26
Full

Hourly Weather History & Observations

Time (MST) Temp. Windchill Dew Point Humidity Pressure Visibility Wind Dir Wind Speed Gust Speed Precip Events Conditions
1:53 AM 7.0 °F -1.7 °F 1.9 °F 80% 30.58 in 10.0 mi SW 4.6 mph - N/A   Clear
2:53 AM 5.0 °F -4.1 °F 1.0 °F 84% 30.61 in 10.0 mi WSW 4.6 mph - N/A   Clear
5:53 AM 6.1 °F -2.8 °F 1.9 °F 83% 30.64 in 10.0 mi SW 4.6 mph - N/A   Clear
6:48 AM 6.8 °F -0.1 °F 1.4 °F 79% 30.54 in 10.0 mi SSW 3.5 mph - N/A   Overcast
7:31 AM 6.8 °F -2.0 °F 1.4 °F 79% 30.55 in 10.0 mi WSW 4.6 mph - N/A   Scattered Clouds
7:53 AM 7.0 °F 0.1 °F 1.9 °F 80% 30.70 in 10.0 mi WSW 3.5 mph - N/A   Mostly Cloudy
8:53 AM 9.0 °F -0.9 °F 3.9 °F 80% 30.73 in 10.0 mi SSW 5.8 mph - N/A   Overcast
10:43 AM 10.4 °F -0.4 °F 6.8 °F 85% 30.60 in 10.0 mi SW 6.9 mph - N/A   Overcast
10:53 AM 10.9 °F 1.4 °F 6.1 °F 81% 30.75 in 10.0 mi West 5.8 mph - N/A   Overcast
11:53 AM 14.0 °F - 9.0 °F 80% 30.73 in 10.0 mi Calm Calm - N/A   Overcast
12:53 PM 17.1 °F 11.7 °F 10.0 °F 74% 30.71 in 10.0 mi SSW 3.5 mph - N/A   Overcast
1:53 PM 18.0 °F - 10.9 °F 74% 30.69 in 10.0 mi Calm Calm - N/A   Overcast
2:53 PM 19.9 °F - 12.0 °F 71% 30.70 in 10.0 mi Calm Calm - N/A   Overcast
3:53 PM 19.9 °F - 14.0 °F 78% 30.71 in 10.0 mi Calm Calm - N/A   Overcast
4:53 PM 21.0 °F - 14.0 °F 74% 30.71 in 10.0 mi Calm Calm - N/A   Overcast
5:53 PM 19.9 °F 14.9 °F 14.0 °F 78% 30.71 in 10.0 mi NNW 3.5 mph - N/A   Overcast
6:53 PM 19.9 °F - 15.1 °F 81% 30.71 in 10.0 mi Calm Calm - N/A   Overcast
7:53 PM 18.0 °F 12.7 °F 12.9 °F 81% 30.71 in 10.0 mi West 3.5 mph - N/A   Overcast
8:53 PM 16.0 °F 7.4 °F 12.0 °F 84% 30.71 in 10.0 mi WSW 5.8 mph - N/A   Overcast
9:53 PM 16.0 °F 7.4 °F 10.9 °F 81% 30.72 in 10.0 mi WSW 5.8 mph - N/A   Overcast
10:53 PM 14.0 °F 5.1 °F 9.0 °F 80% 30.72 in 10.0 mi WSW 5.8 mph - N/A   Overcast
11:49 PM 10.4 °F 4.0 °F 6.8 °F 85% 30.60 in 10.0 mi SW 3.5 mph - N/A   Scattered Clouds
11:53 PM 10.9 °F 2.9 °F 6.1 °F 81% 30.73 in 10.0 mi SSW 4.6 mph - N/A   Scattered Clouds